Showing default

ECHOSTAR 15, 36792

Orbit data source: Space-Track

ECHOSTAR 15, 36792 is a payload satellite owned by Dish Network (US) in GEO that was launched on Sat, 10 Jul 2010 UTC via a PROTON-M/BRIZ-M launch vehicle from the Tyuratam Missile And Space Complex (TTMTR). Payload-class satellites include a variety of spacecraft equipped with specific instruments for various scientific and technological missions. These include communications satellites like Starlink; space stations such as the ISS; scientific satellites like the Hubble; Earth observation satellites from companies like Planet Labs, Umbra, and HawkEye 360; GPS; miniature CubeSats for education and research; and military/defense satellites.

Loading next visibility...
Identifier
36792, 2010-034A
Orbit
GEO
Last TLE update
8 hours ago
Origin
Manufacturer
SS/Loral
Mission
Operational Commercial Communications
Bus & Motor
SSL-1300, R-4D-15-300
Mass
5,521 kg wet, ~3,000 kg dry
Launch date (UTC)
2010-07-10 (15 years ago)
Launch vehicle
PROTON-M/BRIZ-M
Launch site
Tyuratam Missile And Space Complex (TTMTR)
Object type
Payload
Rocket body
Debris
Shape & HBR
Box + 2 Pan, 31 m
Radar Cross Section
40.765 m², Large (>1 m²)

Expand to show TLE details & history

TLE from 8 hours ago
0 ECHOSTAR 15
1 36792U 10034A   25188.82796000 -.00000042  00000-0  00000-0 0  9998
2 36792   0.0178   1.7513 0002452  80.4148  35.9043  1.00113787 54876
Epoch: 2025-07-07T19:52Z
TLE epoch observation values (Epoch: 2025-07-07T19:52:15.743Z)
Latitude
0.0396°
Longitude
-106.00906°
Altitude
35,821.998 km
Speed
3.074 km/s
True Right ascension
07h 52m 21s
True Declination
0° 02' 22"
Sunlit
Object was in daylight at epoch
Visualization orbit readout
Latitude
-0.03593°
Longitude
21.42857°
Altitude
35,840.387 km
Speed
3.072 km/s
Apparent Right ascension
16h 21m 31s
Apparent Declination
-6° 15' 55"
Sunlit
Object is in daylight
Visualization observer readout
Local Sidereal Time
16:26:30
Azimuth
181.714° SSW
Elevation
43.804°
Doppler factor
1
Orbital elements
Apogee altitude
35,842.365 km
Perigee altitude
35,821.665 km
Semi-major axis
42,210.152 km
Eccentricity
0.00025
Inclination
0.0178°
RAAN
1.7513°
Arg. of periapsis
80.4148°
True anomaly
Unknown
Mean anomaly
35.9043°
Eccentric anomaly
Unknown
Mean motion
0.25028 °/min
Orbital period
1,438.42 mins
BSTAR
0
Loading historical data...
36792 neighbors
Loading maneuver chart data...
Loading SW <> Apogee altitude chart data...
Loading historical data...
Loading historical data...
Loading historical data...
Loading historical data...
Loading historical data...
Loading historical data...
Loading historical data...
Other satellites on launch #34 in the year 2010 (2010-07-10 UTC)

ECHOSTAR 15 Visibility forecast

Observer location: undefined°, undefined°

Span
Click to sort rows by Start time (UTC) header in descending order
Start Az.
Max El. time (UTC)
Max El. Az.
Max El.
End time (UTC)
End Az.
1440 mins2025-07-08 04:21:27.342Z181.714° SSW2025-07-08 18:52:27.342Z182.249° SSW34.72°2025-07-09 04:21:27.342Z182.598° SSW
|